AirNav   Everest Fuels
 
 598 users online  

36K Kearny County Airport
Lakin, Kansas, USA

GOING TO LAKIN?


FAA INFORMATION EFFECTIVE 21 MAY 2020

Location

FAA Identifier: 36K
Lat/Long: 37-58-10.0000N 101-15-20.1000W
37-58.166667N 101-15.335000W
37.9694444,-101.2555833
(estimated)
Elevation: 3076.4 ft. / 937.7 m (surveyed)
Variation: 09E (1985)
From city: 2 miles N of LAKIN, KS
Time zone: UTC -5 (UTC -6 during Standard Time)
Zip code: 67860

Airport Operations

Airport use: Open to the public
Activation date: 06/1955
Control tower: no
ARTCC: KANSAS CITY CENTER
FSS: WICHITA FLIGHT SERVICE STATION
NOTAMs facility: ICT (NOTAM-D service available)
Attendance: UNATNDD
Wind indicator: lighted
Segmented circle: no
Beacon: white-green (lighted land airport)
Operates sunset to sunrise.

Airport Communications

CTAF: 122.9

Nearby radio navigation aids

VOR radial/distance  VOR name  Freq  Var
GCKr266/25.3GARDEN CITY VORTAC113.3011E

 
NDB name  Hdg/Dist  Freq  Var  ID
ULYSSES007/23.039506EULS ..- .-.. ...

Airport Services

Fuel available: 100LL
Parking: tiedowns
Airframe service: NONE
Powerplant service: NONE
Bottled oxygen: NONE
Bulk oxygen: NONE

Runway Information

Runway 14/32

Dimensions: 3410 x 40 ft. / 1039 x 12 m
Surface: asphalt, in good condition
Weight bearing capacity: 
PCN 5 /F/C/Y/U
Runway edge lights: medium intensity
Runway edge markings: 14/32 NSTD MARKINGS; INCORRECT SPACING, FADED & NARROW WIDTH..
RUNWAY 14  RUNWAY 32
Latitude: 37-58.396530N37-57.895892N
Longitude: 101-15.601693W101-15.279667W
Elevation: 3076.4 ft.3053.9 ft.
Traffic pattern: leftleft
Markings: NSTD, in fair conditionNSTD, in fair condition
Touchdown point: yes, no lightsyes, no lights
Obstructions: road
15 FT ROAD 50 FT FROM THLD.
10 ft. road, 250 ft. from runway, 5:1 slope to clear
PVT ROAD 50 FT FM THR CONTROLLED BY ARPT.

Runway 2/20

Dimensions: 2579 x 90 ft. / 786 x 27 m
Surface: turf, in poor condition
ROUGH & UNEVEN.
RUNWAY 2  RUNWAY 20
Latitude: 37-58.017658N37-58.367893N
Longitude: 101-15.348462W101-15.044587W
Elevation: 3060.7 ft.3051.3 ft.
Traffic pattern: leftleft
Touchdown point: yes, no lightsyes, no lights
Obstructions: none32 ft. pline, 420 ft. from runway, 100 ft. left of centerline, 13:1 slope to clear

Airport Ownership and Management from official FAA records

Ownership: Publicly-owned
Owner: KEARNY COUNTY
LAKIN, KS 67860
Phone 620-355-6422
Manager: JEFF MORGAN
BOX 475
LAKIN, KS 67860
Phone (620) 355-9302

Airport Operational Statistics

Aircraft based on the field: 14
Single engine airplanes: 14
    
Aircraft operations: avg 77/week *
88% local general aviation
12% transient general aviation
* for 12-month period ending 23 May 2017

Additional Remarks

PUBLIC PHONE AVBL 24 HRS 620-355-6775.
FOR CD CTC KANSAS CITY ARTCC AT 913-254-8508.

Instrument Procedures

There are no published instrument procedures at 36K.

Some nearby airports with instrument procedures:

KULS - Ulysses Airport (23 nm S)
3K3 - Syracuse-Hamilton County Municipal Airport (23 nm W)
KGCK - Garden City Regional Airport (25 nm E)
KJHN - Stanton County Municipal Airport (32 nm SW)
KTQK - Scott City Municipal Airport (35 nm NE)
 
Loc | Ops | Rwys | IFR | FBO | Links
Com | Nav | Svcs | Stats | Notes

AirBoss

 
Area around 36K (Kearny County Airport)
 
Road maps at: MapQuest Bing Google
 
Aerial photo
WARNING: Photo may not be current or correct
Aerial photo of 36K (Kearny County Airport)
Photo taken 07-Sep-2007

Do you have a better or more recent aerial photo of Kearny County Airport that you would like to share? If so, please send us your photo.

 
Sectional chart

 
Airport distance calculator
Flying to Kearny County Airport? Find the distance to fly.

From to 36K

Sunrise and sunset
Times for 27-May-2020
 Local
(UTC-5)
 Zulu
(UTC)
Morning civil twilight05:5610:56
Sunrise06:2711:27
Sunset20:5801:58
Evening civil twilight21:2802:28

Current date and time
Zulu (UTC)  27-May-2020 05:21:37
Local (UTC-5)  27-May-2020 00:21:37
 
METAR
KULS 
23nm S 
270455Z AUTO 12003KT 10SM CLR 13/09 A2997 RMK AO2
K3K3 
23nm W 
270455Z AUTO 11007KT 10SM CLR 12/07 A3000 RMK AO2
KGCK 
26nm E 
270454Z AUTO 15005KT 10SM CLR 14/09 A2996 RMK AO2 SLP125 T01390089
KJHN 
32nm SW 
270455Z AUTO 14005KT 10SM CLR 14/07 A2999 RMK AO2 T01360067
K19S 
35nm SE 
270455Z AUTO 14004KT 10SM CLR 15/09 A2998 RMK AO2 T01510093
KTQK 
35nm NE 
270115Z AUTO 09005KT 10SM CLR 20/07 A2992 RMK AO1 T01980074
TAF
KGCK 
26nm E 
261720Z 2618/2718 35012G22KT P6SM SCT100 SCT200 FM262100 35010KT P6SM SCT100 SCT200 FM270000 02009KT P6SM SCT150 FM270300 VRB04KT P6SM SCT150 SCT250 FM271200 35009KT P6SM SCT200 FM271500 01013G23KT P6SM SCT150 SCT200
NOTAMs
Click for the latest NOTAMs
NOTAMs are issued by the DoD/FAA and will open in a separate window not controlled by AirNav.

 

 
 

FBO, Fuel Providers, and Aircraft Ground Support

  
 Business Name 
 
 Contact 
 
 Services / Description 
 
Fuel Prices
 
Comments
  
Kearny County Airport 620-355-9302
no information available

If you are affiliated with Kearny County Airport and would like to show here your services, contact info, web link, logo, and more, click here
100LL
SS $4.40 
 Updated 21-May-2020
 
   write
SS=Self service
Update Fuel Prices
 

Would you like to see your business listed on this page?

 If your business provides an interesting product or service to pilots, flight crews, aircraft, or users of the Kearny County Airport, you should consider listing it here.  To start the listing process, click on the button below
 
Add a business
 

Other Pages about Kearny County Airport

Update a link
 
Copyright © AirNav, LLC. All rights reserved. Privacy Policy  Contact